Location: Humble ISD Astronomical Observatory
(29.9680°N, 95.2620°W)
Time: 19:34:39
(UTC-05:00)

Tiangong 2 - Pass Details

Date: 27 March 2019
Orbit: 378 x 390 km, 42.8° (Epoch: 23 April)

Event Time Altitude Azimuth Distance (km) Brightness Sun altitude
Rises 20:35:54 0° 208° (SSW) 2,228 5.2 -13.5°
Reaches altitude 10° 20:38:14 10° 192° (SSW) 1,378 3.9 -14.0°
Enters shadow 20:40:21 21° 150° (SSE) 900 2.5 -14.5°
